This is the latest recevied weather packets stored in our database for station/object SP3ZBZ-13. If no packets are shown the sender has not sent any weather packets the latest 10 day(s).
| Time | Temp. | Humidity | Pressure | Rain* | Wind** | Luminosity | Snow |
|---|---|---|---|---|---|---|---|
| 1777729460 | 25° C | 24% | 1015.6 hPa | - | - | 503 W/m² | - |
| 1777728559 | 25° C | 25% | 1015.8 hPa | - | - | 536 W/m² | - |
| 1777727658 | 25° C | 27% | 1015.9 hPa | - | - | 566 W/m² | - |
| 1777726757 | 24.44° C | 28% | 1016.2 hPa | - | - | 587 W/m² | - |
| 1777725856 | 24.44° C | 28% | 1016.3 hPa | - | - | 607 W/m² | - |
| 1777724955 | 24.44° C | 26% | 1016.6 hPa | - | - | 621 W/m² | - |
| 1777724054 | 25° C | 24% | 1016.7 hPa | - | - | 634 W/m² | - |
| 1777723153 | 24.44° C | 25% | 1016.8 hPa | - | - | 649 W/m² | - |
| 1777722252 | 25° C | 25% | 1017.1 hPa | - | - | 660 W/m² | - |
| 1777721351 | 24.44° C | 25% | 1017.4 hPa | - | - | 671 W/m² | - |
| 1777720451 | 24.44° C | 25% | 1017.5 hPa | - | - | 676 W/m² | - |
| 1777719550 | 23.33° C | 27% | 1017.7 hPa | - | - | 678 W/m² | - |
| 1777718649 | 23.33° C | 28% | 1017.9 hPa | - | - | 682 W/m² | - |
| 1777717748 | 23.33° C | 26% | 1018.1 hPa | - | - | 676 W/m² | - |
| 1777716847 | 23.33° C | 25% | 1018.1 hPa | - | - | 677 W/m² | - |
| 1777715946 | 23.33° C | 27% | 1018.3 hPa | - | - | 659 W/m² | - |
| 1777715046 | 22.78° C | 28% | 1018.5 hPa | - | - | 642 W/m² | - |
| 1777714144 | 22.22° C | 30% | 1018.6 hPa | - | - | 627 W/m² | - |
| 1777713244 | 22.22° C | 30% | 1018.8 hPa | - | - | 74 W/m² | - |
| 1777712342 | 22.22° C | 31% | 1018.9 hPa | - | - | 596 W/m² | - |
| 1777711442 | 21.67° C | 29% | 1019.1 hPa | - | - | 570 W/m² | - |
| 1777710540 | 21.67° C | 29% | 1019.2 hPa | - | - | 542 W/m² | - |
| 1777709639 | 21.11° C | 30% | 1019.4 hPa | - | - | 512 W/m² | - |
| 1777708739 | 20.56° C | 31% | 1019.4 hPa | - | - | 489 W/m² | - |
| 1777707838 | 19.44° C | 33% | 1019.5 hPa | - | - | 453 W/m² | - |
* Rain since midnight (hover to see other rain measurements)
** Current wind speed in m/s (hover to see current wind gust speed)